Regional Weather Roundup
Issued by NWS

Home | Current Version | Previous Version | Graphics & Text | Print | Product List | Glossary On
Versions: 1 2 3 4 5 6 7 8 9 10 11 12 13 14 15 16 17 18 19 20 21 22 23 24 25 26 27 28 29 30 31 32 33 34 35 36 37 38 39 40 41 42 43 44 45 46 47 48 49 50
000
ASUS43 KLOT 191204
RWRIL

ILLINOIS REGIONAL WEATHER ROUNDUP
NATIONAL WEATHER SERVICE CHICAGO/ROMEOVILLE IL
700 AM CDT THU OCT 19 2017

NOTE: "FAIR" INDICATES FEW OR NO CLOUDS BELOW 12,000 FEET WITH NO
SIGNIFICANT WEATHER AND/OR OBSTRUCTIONS TO VISIBILITY.

* THESE STATIONS ARE NOT UNDER NWS QUALITY CONTROL. THEY ALSO MAY NOT
  REPORT WEATHER SUCH AS PRECIPITATION OR FOG.

ILZ001-002-007-009-015-016-024-191300-
NORTHWEST ILLINOIS

CITY           SKY/WX    TMP DP  RH WIND       PRES   REMARKS
MOLINE         CLOUDY    45  42  89 CALM      30.11R
6HR MIN TEMP:  44; 6HR MAX TEMP:  59;

STERLING*      CLOUDY    43  42  97 CALM        N/A
SAVANNA*       FOG       42  42  99 CALM      30.12R VSB 1/2
$$

ILZ003-004-008-010-011-017-018-191300-
NORTH CENTRAL ILLINOIS

CITY           SKY/WX    TMP DP  RH WIND       PRES   REMARKS
ROCKFORD       PTCLDY    45  43  93 CALM      30.13R
6HR MIN TEMP:  45; 6HR MAX TEMP:  56;

FREEPORT*      CLOUDY    41  40  95 CALM      30.13S
ROCHELLE*      CLOUDY    40  40  99 CALM      30.12R
DE KALB*       CLOUDY    48  44  85 NW5       30.12R
PERU*          CLOUDY    48  45  89 W3        30.12S
$$

ILZ005-006-012>014-019>023-191300-
NORTHEAST ILLINOIS

CITY           SKY/WX    TMP DP  RH WIND       PRES   REMARKS
CHICAGO-OHARE  CLOUDY    52  45  77 W5        30.10R
6HR MIN TEMP:  52; 6HR MAX TEMP:  60;

CHICAGO-MIDWAY CLOUDY    53  47  79 W6        30.10R
6HR MIN TEMP:  53; 6HR MAX TEMP:  59;

AURORA         CLOUDY    44  43  96 NW3       30.12R
6HR MIN TEMP:  44; 6HR MAX TEMP:  54;

LANSING*       PTCLDY    47  46  96 S3        30.11S
JOLIET*        PTCLDY    48  47  95 CALM      30.12R
WAUKEGAN       CLOUDY    47  44  90 CALM      30.10R
6HR MIN TEMP:  47; 6HR MAX TEMP:  59;

DUPAGE AIRPORT CLOUDY    47  46  97 CALM      30.11R
6HR MIN TEMP:  47; 6HR MAX TEMP:  55;

KANKAKEE*      CLOUDY    50  45  84 SW5       30.13R
WHEELING       CLOUDY    51  46  83 CALM      30.12R
6HR MIN TEMP:  51; 6HR MAX TEMP:  61;

MORRIS*        CLOUDY    49  46  88 W3        30.11R
NORTHERLY ISL    N/A     56  46  69 W7          N/A
$$

LMZ740>746-191300-
SOUTHERN LAKE MICHIGAN

STATION/POSITION SKY/WX   TEMP    WIND        PRES    VSBY  WAVE
                          AIR SEA DIR/SP/G                  HT/PER
                          (F)     (DEG/KT/KT) (MB)    (MI)  (FT/S)
SOUTHERN BUOY              59 61  310/ 14/ 16 1017.5          3/ 5
WILMETTE HARBOR            56 57  270/ 10/ 12   N/A           1/ 2
HARRISON CRIB              58     280/ 11/ 12   N/A
BURNHAM HARBOR             55     260/  5/  9   N/A
BURNS HARBOR               56     230/  9/ 13 1019.6R
MICHIGAN CITY              56     230/ 16/ 17   N/A
MICHIGAN CITY 6N           56 57  250/ 12/ 16   N/A           2/ 4
ST. JOSEPH                 58 58  250/ 12/ 16 1019.3R         4/ 5
$$

ILZ025>027-034>036-040-047-049-050-058-095>099-191300-
WEST-CENTRAL ILLINOIS

CITY           SKY/WX    TMP DP  RH WIND       PRES   REMARKS
QUINCY         CLEAR     50  45  83 S8        30.12R
GALESBURG*     CLEAR     42  42 100 CALM      30.13R
MACOMB*        CLEAR     47  44  89 CALM      30.13S
JACKSONVILLE*  CLEAR     54  47  79 S7        30.13S
PITTSFIELD*    CLEAR     52  47  84 S5        30.14S
$$

ILZ028>032-037-038-041>044-048-051>054-059>061-191300-
CENTRAL ILLINOIS

CITY           SKY/WX    TMP DP  RH WIND       PRES   REMARKS
PONTIAC        CLEAR     51  49  93 SW3       30.13R
BLOOMINGTON    CLEAR     50  47  89 SW9       30.14R
DECATUR        CLEAR     51  47  86 SW9       30.14S
PEORIA         CLEAR     49  47  93 CALM      30.12S
6HR MIN TEMP:  49; 6HR MAX TEMP:  53;

LACON*         CLEAR     48  47  95 CALM      30.11S
LINCOLN*       CLEAR     45  45 100 CALM      30.14R
SPRINGFIELD    CLEAR     54  49  83 SW5       30.14R
6HR MIN TEMP:  53; 6HR MAX TEMP:  56;

TAYLORVILLE    CLEAR     49  47  91 SW6       30.15R
6HR MIN TEMP:  49; 6HR MAX TEMP:  54;

$$

ILZ033-039-045-046-055>057-062-063-191300-
EAST-CENTRAL ILLINOIS

CITY           SKY/WX    TMP DP  RH WIND       PRES   REMARKS
CHAMPAIGN      CLEAR     48  44  86 SW3       30.15R
DANVILLE*      CLEAR     48  46  90 S3        30.13R
RANTOUL*       CLEAR     52  49  90 SW5       30.14S
MATTOON        CLEAR     52  48  86 S9        30.15R
PARIS*         CLEAR     51  47  88 S7        30.16S
$$

ILZ079-100>102-191300-
SOUTHWEST ILLINOIS

CITY           SKY/WX    TMP DP  RH WIND       PRES   REMARKS
BELLEVILLE     CLEAR     47  45  93 CALM      30.20R
CAHOKIA*       CLEAR     47  44  90 CALM      30.16S
SPARTA*        CLEAR     55  47  74 S9        30.19S
$$

ILZ064>066-069>071-074>076-080>082-084>086-088>090-092>094-191300-
SOUTH-CENTRAL ILLINOIS

CITY           SKY/WX    TMP DP  RH WIND       PRES   REMARKS
CARBONDALE     CLEAR     50  47  89 S6        30.20R
6HR MIN TEMP:  46; 6HR MAX TEMP:  55;

CAIRO*         CLEAR     46  45  97 S3        30.23S
EFFINGHAM*     CLEAR     50  48  95 S3        30.18S
MARION         CLEAR     50  50 100 S6        30.21R
MT. VERNON     CLEAR     44  44 100 CALM      30.19S FOG
CENTRALIA*     CLEAR     50  47  90 CALM      30.17S
SALEM*         CLEAR     52  46  82 S6        30.18S
METROPOLIS*    CLEAR     47  46  94 CALM      30.24S
$$

ILZ067-068-072-073-078-083-087-091-191300-
SOUTHEAST ILLINOIS

CITY           SKY/WX    TMP DP  RH WIND       PRES   REMARKS
LAWRENCEVILLE  CLEAR     48  45  89 S7        30.20R
FLORA*         CLEAR     48  46  92 S6        30.19S
FAIRFIELD*     CLEAR     50  47  89 S5        30.19R
HARRISBURG*    CLEAR     47  46  93 CALM      30.22S
ROBINSON*      CLEAR     48  46  92 S5        30.19S
CARMI*         CLEAR     45  44  98 S5        30.20S
$$

ABBREVIATIONS USED IN REMARKS
   TC - TEMPERATURE IN CELSIUS
  WCI - WIND CHILL INDEX
   HX - HEAT INDEX
  VSB - VISIBILITY
$$





USA.gov is the U.S. government's official web portal to all federal, state and local government web resources and services.